Hourly Weather Roundup
Issued by NWS

Home | Current Version | Previous Version | Text Only | Print | Product List | Glossary On
Versions: 1 2 3 4 5 6 7 8 9 10 11 12 13 14 15 16 17 18 19 20 21 22 23 24 25 26 27 28 29 30 31 32 33 34 35 36 37 38 39 40 41 42 43 44 45 46 47 48 49 50
000
NZUS43 KILX 201210
HWRCRS

NWR Hourly Weather Roundup
National Weather Service Lincoln IL
700 AM CDT SUN AUG 20 2017


CITY           SKY/WX    TMP DP  RH WIND       PRES   REMARKS
Champaign      CLEAR     67  65  93 E5        30.02S
Lawrenceville  CLOUDY    71  70  96 CALM      30.05R
Peoria         CLOUDY    70  65  84 CALM      30.00R
Springfield    CLOUDY    68  66  93 CALM      30.01R
$$


CITY           SKY/WX    TMP DP  RH WIND       PRES   REMARKS
Bloomington    CLOUDY    67  65  93 SE6       30.03R
Danville       CLEAR     63  62  96 CALM      30.01S
Decatur        CLOUDY    66  64  93 CALM      30.01R
Effingham      CLEAR     67  67 100 CALM      30.04R
Flora          PTCLDY    70  68  95 CALM      30.02S FOG
Galesburg      CLOUDY    65  63  93 SE5       30.00R
Jacksonville   CLOUDY    66  64  94 S3        30.00R
Lacon          PTCLDY    63  61  95 CALM      30.00R
La Salle       CLOUDY    63  59  87 E3        30.02R
Lincoln        CLOUDY    65  65  99 CALM      30.01R
Litchfield     CLOUDY    69  67  93 S6        30.00S

CITY           SKY/WX    TMP DP  RH WIND       PRES   REMARKS
Macomb         CLOUDY    61  61  99 SE3       30.01S FOG
Mattoon        CLEAR     68  68 100 SE6       30.01S
Moline         CLOUDY    64  60  87 E3        29.98R
Olney          CLOUDY    68  66  93 E3        30.03S
Paris          CLEAR     65  65 100 SE5       30.04S
Pontiac        CLEAR     63  62  98 CALM      30.02S
Quincy         CLOUDY    69  66  90 S3        29.98S
Rantoul        CLEAR     67  65  92 CALM      30.03R
Robinson       CLOUDY    64  64 100 CALM      30.04S FOG
Taylorville    CLOUDY    69  67  94 S3        30.01R
Terre Haute    CLEAR     65  62  90 CALM      30.03S
$$


CITY           SKY/WX    TMP DP  RH WIND       PRES   REMARKS
Burlington     CLOUDY    68  67  96 S3        29.97S
Chicago        MOCLDY    65  58  78 S3        30.03R
Des Moines     LGT RAIN  70  67  90 SE8       29.93F
Evansville     CLOUDY    73  69  87 CALM      30.06R
Indianapolis   MOSUNNY   69  65  86 E5        30.05R
Kansas City    TSTM      69  66  90 SE12      29.99F
Milwaukee      MOCLDY    65  59  81 SW5       30.03R
St Louis       MOCLDY    75  70  84 CALM      30.00R
$$





USA.gov is the U.S. government's official web portal to all federal, state and local government web resources and services.